Weather History for Eau Claire, WI

Change the Weather History Date:

Friday, November 25, 2011

  Actual Average Record
Temperature  
Mean Temperature 47 °F 28 °F  
Max Temperature 52 °F 36 °F 55 °F (1960)
Min Temperature 42 °F 20 °F -11 °F (1898)
Degree Days  
Heating Degree Days 18 37  
Month to date heating degree days 652 766  
Since 1 July heating degree days 1346 1550  
Cooling Degree Days 0 0  
Month to date cooling degree days 0 0  
Year to date cooling degree days 655 579  
Moisture  
Dew Point 42 °F    
Average Humidity 78    
Maximum Humidity 93    
Minimum Humidity 63    
Precipitation  
Precipitation 0.02 in 0.06 in 0.91 in (1952)
Month to date precipitation 0.17 1.57  
Year to date precipitation 30.32 29.71  
Snow  
Snow 0.00 in 0.30 in 5.10 in (1993)
Month to date snowfall 1.2 4.5  
Since 1 July snowfall 1.2 4.9  
Since 1 September snowfall 1.2 4.9  
Snow Depth 0.00 in    
Sea Level Pressure  
Sea Level Pressure 29.72 in    
Wind  
Wind Speed 8 mph (South)    
Max Wind Speed 14 mph    
Max Gust Speed 20 mph    
Visibility 8 miles    
Events Rain    
T = Trace of Precipitation, MM = Missing Value Source: NWS Daily Summary

Daily Weather History Graph

Daily Weather History Graph

Search for Another Location

Airport:

Trip Planner

Search our weather history database for the weather conditions in past years. The results will help you decide how hot, cold, wet, or windy it might be!

Date:

Astronomy

Nov. 25, 2011 Rise Set
Actual Time 7:15 AM CST 4:29 PM CST
Civil Twilight 6:43 AM CST 5:01 PM CST
Nautical Twilight 6:07 AM CST 5:38 PM CST
Astronomical Twilight 5:32 AM CST 6:13 PM CST
Moon 7:46 AM CST (11/25) 4:54 PM CST (11/25)
Length of Visible Light 10h 18m
Length of Day
9h 13m
New Moon, 0% of the Moon is Illuminated
Nov 25
New Moon
Dec 2
First Quarter
Dec 10
Full
Dec 17
Last Quarter
Dec 24
New

Hourly Weather History & Observations

Time (CST) Temp. Windchill Dew Point Humidity Pressure Visibility Wind Dir Wind Speed Gust Speed Precip Events Conditions
12:56 AM 51.1 °F - 39.9 °F 66% 29.71 in 10.0 mi SSW 9.2 mph - N/A   Clear
1:56 AM 51.1 °F - 39.9 °F 66% 29.71 in 10.0 mi SSW 9.2 mph - N/A   Clear
2:56 AM 48.9 °F - 39.9 °F 71% 29.72 in 10.0 mi SW 8.1 mph - N/A   Clear
3:56 AM 48.2 °F - 39.2 °F 71% 29.70 in 10.0 mi SSW 8.1 mph - N/A   Clear
4:56 AM 48.0 °F - 39.9 °F 74% 29.72 in 10.0 mi South 5.8 mph - N/A   Clear
5:56 AM 46.0 °F 43.9 °F 39.9 °F 79% 29.71 in 10.0 mi South 4.6 mph - N/A   Clear
6:56 AM 44.1 °F 40.8 °F 39.0 °F 82% 29.73 in 10.0 mi SSW 5.8 mph - N/A   Clear
7:56 AM 43.0 °F 39.5 °F 39.0 °F 86% 29.72 in 10.0 mi South 5.8 mph - N/A   Clear
8:56 AM 48.0 °F - 42.1 °F 80% 29.73 in 10.0 mi South 9.2 mph - N/A   Clear
9:39 AM 48.2 °F - 42.8 °F 82% 29.72 in 10.0 mi South 11.5 mph - N/A   Mostly Cloudy
9:56 AM 48.9 °F - 42.1 °F 77% 29.73 in 10.0 mi SSW 10.4 mph - N/A   Overcast
10:56 AM 50.0 °F - 43.0 °F 77% 29.73 in 10.0 mi South 10.4 mph - N/A   Overcast
11:56 AM 50.0 °F - 42.8 °F 76% 29.71 in 9.0 mi SSW 9.2 mph - N/A   Overcast
12:56 PM 50.0 °F - 43.0 °F 77% 29.71 in 8.0 mi South 10.4 mph - N/A   Overcast
1:56 PM 50.0 °F - 42.8 °F 76% 29.70 in 9.0 mi South 9.2 mph - N/A   Overcast
2:56 PM 50.0 °F - 42.8 °F 76% 29.70 in 9.0 mi South 8.1 mph 19.6 mph N/A   Overcast
3:56 PM 48.9 °F - 43.0 °F 80% 29.72 in 9.0 mi South 8.1 mph - N/A   Overcast
4:56 PM 48.9 °F - 43.0 °F 80% 29.72 in 10.0 mi South 8.1 mph - N/A   Overcast
5:56 PM 48.9 °F - 42.1 °F 77% 29.75 in 10.0 mi South 9.2 mph - N/A   Overcast
6:48 PM 48.2 °F - 42.8 °F 82% 29.72 in 9.0 mi SSE 4.6 mph - N/A   Overcast
6:56 PM 48.0 °F - 43.0 °F 83% 29.74 in 9.0 mi SSE 9.2 mph - N/A   Overcast
7:56 PM 46.9 °F - 44.1 °F 90% 29.75 in 7.0 mi SSE 10.4 mph - N/A   Overcast
8:56 PM 46.0 °F 41.9 °F 45.0 °F 96% 29.75 in 4.0 mi SSE 8.1 mph - N/A   Overcast
9:56 PM 46.4 °F 42.4 °F 44.6 °F 93% 29.74 in 4.0 mi SE 8.1 mph - N/A Rain Light Rain
10:35 PM 46.4 °F 42.4 °F 44.6 °F 93% 29.72 in 4.0 mi SE 8.1 mph - 0.00 in Rain Light Rain
10:45 PM 46.4 °F 42.4 °F 44.6 °F 93% 29.73 in 5.0 mi SE 8.1 mph - 0.00 in Rain Light Rain
10:56 PM 46.9 °F - 45.0 °F 93% 29.74 in 4.0 mi SE 9.2 mph - 0.00 in Rain Light Rain
11:34 PM 46.4 °F 42.4 °F 46.4 °F 100% 29.73 in 4.0 mi SSE 8.1 mph - 0.02 in Rain Light Rain
11:56 PM 46.9 °F - 46.0 °F 97% 29.74 in 5.0 mi SSE 9.2 mph - 0.02 in Rain Light Rain